NOAA 16 DEB, 41243

Orbit data source: Space-Track

NOAA 16 DEB, 41243 is space debris in SSO originally from a launch on Thu, 21 Sep 2000 UTC launched from the Air Force Western Test Range (AFWTR). Debris objects in space refer to the collection of defunct objects orbiting the Earth. Examples of debris include non-operational satellites, rocket bodies, and fragments generated from explosions, collisions, or faulty payload assembly.

Loading next visibility...
Identifier
41243, 2000-055ET
Orbit
SSO
Country
Flag of USUS
Related business
Manufacturer
Unknown
Mission
Spacecraft
Bus & Motor
Unknown
Mass
Unknown
Launch date (UTC)
2000-09-21 (25 years ago)
Launch vehicle
Unknown
Launch site
Air Force Western Test Range (AFWTR)
Object type
Payload
Rocket body
Debris
Shape & HBR
Unknown shape, 0.1 m
Radar Cross Section
Small (<0.1 m²)

Expand to show TLE details & history
Last TLE update: 21 hours ago

TLE from 21 hours ago
0 NOAA 16 DEB
1 41243U 00055ET  25340.93620329  .00006440  00000-0  26634-2 0  9999
2 41243  98.7352  59.6919 0004243 230.3509 129.7298 14.26994373512716
Epoch: 2025-12-06T22:28Z
TLE epoch observation values (Epoch: 2025-12-06T22:28:07.964Z)
Latitude
0.00006°
Longitude
6.70191°
Altitude
806.667 km
Speed
7.449 km/s
True Right ascension
03h 58m 46s
True Declination
0° 00' 00"
Sunlit
Object was in full shadow at epoch
Visualization orbit readout
Latitude
Unknown
Longitude
Unknown
Altitude
Unknown
Speed
Unknown
Apparent Right ascension
Unknown
Apparent Declination
Unknown
Sunlit
N/A
Visualization observer readout
Local Sidereal Time
17:44:28
Azimuth
Unknown
Elevation
Unknown
Doppler factor
Unknown
Orbital elements
Apogee altitude
801.991 km
Perigee altitude
795.9 km
Semi-major axis
7,177.083 km
Eccentricity
0.00042
Inclination
98.7352°
RAAN
59.6919°
Arg. of periapsis
230.3509°
True anomaly
129.76718°
Mean anomaly
129.7298°
Eccentric anomaly
129.74849°
Mean motion
3.56961 °/min
Orbital period
100.85 mins
BSTAR
0.0026634
Loading maneuver chart data...
Computing Atmospheric mass density...
Loading historical data...
Loading historical data...
Loading historical data...
Loading historical data...
Loading historical data...
Loading historical data...
Loading historical data...

Documentation

Showing up to 5 results
|